Location: Les Jeannots
(43.2262°N, 5.5774°E)
Time: 16:43:44
(UTC+00:00)

Cosmos 1500 Rocket - Pass Details

Date: 05 July 2020
Orbit: 603 x 632 km, 82.5° (Epoch: 13 August)

Event Time Altitude Azimuth Distance (km) Brightness Sun altitude
Exits shadow 23:44:48 64° 91° (E) 693 3.7 -24.1°
Drops below altitude 10° 23:49:07 10° 14° (NNE) 1,992 7.2 -24.1°
Sets 23:51:21 0° 12° (NNE) 2,897 8.4 -24.1°
